Location: Ferchesar
(52.6477°N, 12.4298°E)
Time: 20:45:59
(UTC+01:00)

Tiros 1 - Pass Details

Date: 09 December 2021
Orbit: 629 x 664 km, 48.4° (Epoch: 18 January)

Event Time Altitude Azimuth Distance (km) Brightness Sun altitude
Rises 20:14:42 0° 268° (W) 2,929 11.4 -37.8°
Reaches altitude 10° 20:17:05 10° 263° (W) 2,025 10.3 -38.2°
Enters shadow 20:17:37 13° 261° (W) 1,824 10.0 -38.3°
